Weather History for KPSX - December, 2011

Change the Weather History Date:

Monday, December 26, 2011

  Actual Average Record
Temperature  
Mean Temperature 52 °F -  
Max Temperature 57 °F 62 °F 77 °F (1955)
Min Temperature 46 °F 41 °F 18 °F (1983)
Degree Days  
Heating Degree Days 14    
Growing Degree Days 2 (Base 50)    
Moisture  
Dew Point 44 °F    
Average Humidity 82    
Maximum Humidity 100    
Minimum Humidity 57    
Precipitation  
Precipitation 0.00 in - - ()
Sea Level Pressure  
Sea Level Pressure 30.21 in    
Wind  
Wind Speed 9 mph (WNW)    
Max Wind Speed 13 mph    
Max Gust Speed 18 mph    
Visibility 10 miles    
Events      
Averages and records for this station are not official NWS values.
T = Trace of Precipitation, MM = Missing Value Source: NWS Daily Summary

Daily Weather History Graph

Daily Weather History Graph

Search for Another Location

Airport or City:

Trip Planner

Search our weather history database for the weather conditions in past years. The results will help you decide how hot, cold, wet, or windy it might be!

Date:

Astronomy

Dec. 26, 2011 Rise Set
Actual Time 7:15 AM CST 5:35 PM CST
Civil Twilight 6:49 AM CST 6:01 PM CST
Nautical Twilight 6:20 AM CST 6:30 PM CST
Astronomical Twilight 5:51 AM CST 6:59 PM CST
Moon 8:44 AM CST (12/26) 7:54 PM CST (12/26)
Length of Visible Light 11h 11m
Length of Day
10h 19m
Waxing Crescent, 5% of the Moon is Illuminated
Dec 26
Waxing Crescent
Jan 1
First Quarter
Jan 9
Full
Jan 16
Last Quarter
Jan 23
New

Hourly Weather History & Observations

Time (CST) Temp. Windchill Dew Point Humidity Pressure Visibility Wind Dir Wind Speed Gust Speed Precip Events Conditions
12:53 AM 46.9 °F - 46.0 °F 97% 30.28 in 10.0 mi NNW 10.4 mph - N/A   Overcast
1:41 AM 46.4 °F 42.9 °F 46.4 °F 100% 30.26 in 10.0 mi NNW 6.9 mph - N/A   Overcast
1:53 AM 46.9 °F - 45.0 °F 93% 30.27 in 10.0 mi NW 9.2 mph - N/A   Overcast
3:07 AM 46.4 °F 42.4 °F 44.6 °F 93% 30.26 in 10.0 mi NW 8.1 mph - N/A   Overcast
3:23 AM 46.4 °F 41.5 °F 44.6 °F 93% 30.26 in 10.0 mi NW 10.4 mph - N/A   Overcast
3:53 AM 46.0 °F 41.4 °F 45.0 °F 96% 30.27 in 7.0 mi NW 9.2 mph - N/A   Overcast
4:53 AM 46.0 °F 41.9 °F 46.0 °F 100% 30.25 in 10.0 mi WNW 8.1 mph - N/A   Overcast
5:53 AM 46.0 °F 40.6 °F 45.0 °F 96% 30.25 in 10.0 mi NW 11.5 mph - N/A   Overcast
6:53 AM 46.9 °F - 45.0 °F 93% 30.25 in 10.0 mi NW 6.9 mph - N/A   Overcast
7:53 AM 46.9 °F - 45.0 °F 93% 30.26 in 10.0 mi NW 10.4 mph - N/A   Overcast
8:53 AM 48.2 °F - 44.6 °F 87% 30.27 in 10.0 mi NW 8.1 mph - N/A   Mostly Cloudy
9:53 AM 48.0 °F - 45.0 °F 89% 30.25 in 10.0 mi NW 9.2 mph - N/A   Partly Cloudy
10:53 AM 48.9 °F - 43.0 °F 80% 30.26 in 10.0 mi NW 10.4 mph - N/A   Overcast
11:53 AM 48.9 °F - 45.0 °F 86% 30.23 in 10.0 mi WNW 12.7 mph - 0.00 in   Overcast
12:05 PM 51.8 °F - 44.6 °F 76% 30.23 in 10.0 mi WNW 9.2 mph - N/A   Overcast
12:33 PM 51.8 °F - 44.6 °F 76% 30.20 in 10.0 mi West 10.4 mph - N/A   Scattered Clouds
12:53 PM 53.1 °F - 45.0 °F 74% 30.19 in 10.0 mi West 12.7 mph - N/A   Partly Cloudy
1:10 PM 53.6 °F - 46.4 °F 77% 30.17 in 10.0 mi West 10.4 mph - N/A   Mostly Cloudy
1:53 PM 55.9 °F - 45.0 °F 67% 30.14 in 10.0 mi West 11.5 mph - N/A   Mostly Cloudy
2:21 PM 55.4 °F - 44.6 °F 67% 30.13 in 10.0 mi WNW 12.7 mph - N/A   Partly Cloudy
2:53 PM 55.9 °F - 43.0 °F 62% 30.12 in 10.0 mi WNW 11.5 mph 18.4 mph N/A   Clear
3:53 PM 57.9 °F - 43.0 °F 58% 30.12 in 10.0 mi WNW 10.4 mph - N/A   Clear
4:53 PM 57.0 °F - 42.1 °F 57% 30.12 in 10.0 mi WNW 9.2 mph - N/A   Clear
5:53 PM 52.0 °F - 43.0 °F 71% 30.12 in 10.0 mi West 3.5 mph - N/A   Clear
6:53 PM 48.9 °F - 43.0 °F 80% 30.13 in 10.0 mi SW 3.5 mph - N/A   Clear
8:53 PM 48.0 °F - 39.9 °F 74% 30.17 in 10.0 mi West 5.8 mph - N/A   Clear
9:53 PM 48.0 °F - 41.0 °F 77% 30.18 in 10.0 mi WSW 4.6 mph - N/A   Clear
10:53 PM 46.9 °F - 43.0 °F 86% 30.18 in 10.0 mi SW 6.9 mph - N/A   Clear
11:53 PM 46.9 °F - 43.0 °F 86% 30.17 in 10.0 mi WSW 5.8 mph - N/A   Clear